Location: Bear Valley Community Church - Hurst
(32.8460°N, 97.1828°W)
Time: 13:32:19
(UTC+00:00)

CZ-4B DEB - Visible Passes

Search period start: 26 September 2022 00:00
Search period end: 06 October 2022 00:00
Orbit: 570 x 783 km, 97.7° (Epoch: 25 September)

Date Brightness Start Highest point End Pass type
(mag) Time Alt. Az. Time Alt. Az. Time Alt. Az.
26 Sep ? 01:27:47 10° N 01:31:21 30° WNW 01:34:58 10° SW visible
26 Sep ? 10:52:09 10° ENE 10:52:52 10° ENE 10:53:35 10° ENE visible
27 Sep ? 02:04:18 10° NW 02:05:52 12° WNW 02:07:26 10° W visible
27 Sep ? 11:23:34 10° SE 11:27:21 25° ENE 11:30:59 10° NNE visible
28 Sep ? 00:59:39 10° N 01:03:41 70° WNW 01:07:50 10° SSW visible
29 Sep ? 01:34:57 10° NNW 01:38:19 25° WNW 01:41:44 10° SW visible
29 Sep ? 10:58:00 10° E 10:59:50 12° ENE 11:01:37 10° NE visible
30 Sep ? 11:30:22 10° SE 11:34:20 30° ENE 11:38:07 10° NNE visible
01 Oct ? 01:06:37 10° N 01:10:37 56° WNW 01:14:46 10° SSW visible
02 Oct ? 01:42:05 10° NNW 01:45:11 21° WNW 01:48:22 10° WSW visible
02 Oct ? 11:04:17 10° ESE 11:06:43 15° ENE 11:09:04 10° NE visible
03 Oct ? 00:38:44 10° NNE 00:42:49 64° E 00:47:05 10° S visible
03 Oct ? 11:37:07 10° SE 11:41:13 35° ENE 11:45:06 10° N visible
04 Oct ? 01:13:31 10° N 01:17:28 45° WNW 01:21:35 10° SSW visible
05 Oct ? 01:49:12 10° NNW 01:51:59 18° WNW 01:54:52 10° WSW visible
05 Oct ? 11:10:40 10° ESE 11:13:30 17° ENE 11:16:16 10° NNE visible
